SR9WXP Weather Reports


Display with metric or nautical units.
time (UTC)temp
F
wind
direction
speed
MPH
gust
MPH
rain 1hr
in
rain 24hr
in
rain mn
in
humidity
%
barometer
mb
20260508002256 40 319 3.0 5.0 0.00 0.00 0.00 93 854.4
20260508002157 40 299 4.0 5.0 0.00 0.00 0.00 93 854.4
20260508001753 40 304 3.0 4.0 0.00 0.00 0.00 93 854.4
20260508001555 40 305 3.0 4.0 0.00 0.00 0.00 93 854.4
20260508001354 40 313 3.0 4.0 0.00 0.00 0.00 93 854.4
20260508001253 40 319 3.0 4.0 0.00 0.00 0.00 93 854.4
20260508001154 40 336 3.0 4.0 0.00 0.00 0.00 93 854.4
20260508000954 40 351 3.0 5.0 0.00 0.00 0.00 93 854.5
20260508000750 40 299 3.0 5.0 0.00 0.00 0.00 93 854.4
20260508000351 40 261 6.0 9.0 0.00 0.00 0.00 93 854.5
20260508000250 40 268 5.0 7.0 0.00 0.00 0.00 93 854.5
20260507235747 40 268 5.0 7.0 0.00 0.00 0.00 93 854.5
20260507235548 40 291 6.0 7.0 0.00 0.00 0.00 93 854.5
20260507235348 40 291 5.0 6.0 0.00 0.00 0.00 93 854.5
20260507235247 40 284 5.0 6.0 0.00 0.00 0.00 93 854.5
20260507235148 40 278 6.0 7.0 0.00 0.00 0.00 93 854.4
20260507234948 40 277 7.0 12.0 0.00 0.00 0.00 93 854.4
20260507234744 40 294 7.0 8.0 0.00 0.00 0.00 92 854.4
20260507234546 40 305 5.0 8.0 0.00 0.00 0.00 92 854.5
20260507234346 40 316 4.0 7.0 0.00 0.00 0.00 92 854.5
20260507234244 40 304 5.0 9.0 0.00 0.00 0.00 92 854.5
20260507234146 41 302 6.0 9.0 0.00 0.00 0.00 92 854.5
20260507233741 41 286 6.0 14.0 0.00 0.00 0.00 92 854.4
20260507233541 41 326 5.0 14.0 0.00 0.00 0.00 92 854.4
20260507233342 41 288 5.0 8.0 0.00 0.00 0.00 92 854.5
20260507233241 41 283 5.0 8.0 0.00 0.00 0.00 92 854.5
20260507233142 41 304 5.0 8.0 0.00 0.00 0.00 92 854.5
20260507232942 41 302 5.0 8.0 0.00 0.00 0.00 92 854.6
20260507232738 41 275 6.0 8.0 0.00 0.00 0.00 92 854.5
20260507232539 41 288 5.0 8.0 0.00 0.00 0.00 92 854.6
20260507232339 41 322 4.0 6.0 0.00 0.00 0.00 92 854.6
20260507232238 41 317 4.0 6.0 0.00 0.00 0.00 92 854.6
20260507231735 42 295 6.0 8.0 0.00 0.00 0.00 92 854.5
20260507231536 42 299 6.0 8.0 0.00 0.00 0.00 92 854.5
20260507231235 42 313 5.0 9.0 0.00 0.00 0.00 92 854.5
20260507231136 42 285 7.0 12.0 0.00 0.00 0.00 92 854.4
20260507230936 42 280 5.0 12.0 0.00 0.00 0.00 92 854.4
20260507230732 42 295 3.0 4.0 0.00 0.00 0.00 92 854.4
20260507230333 42 282 3.0 5.0 0.00 0.00 0.00 92 854.3
20260507230233 42 292 3.0 3.0 0.00 0.00 0.00 92 854.3
20260507230133 42 282 3.0 4.0 0.00 0.00 0.00 92 854.3
20260507225933 42 270 2.0 4.0 0.00 0.00 0.00 92 854.3
20260507225730 42 279 2.0 3.0 0.00 0.00 0.00 92 854.3
20260507225532 42 284 3.0 5.0 0.00 0.00 0.00 92 854.4
20260507225331 42 261 4.0 6.0 0.00 0.00 0.00 92 854.4
20260507225229 42 256 3.0 6.0 0.00 0.00 0.00 92 854.4
20260507224930 42 261 2.0 3.0 0.00 0.00 0.00 92 854.4
20260507224727 42 258 3.0 4.0 0.00 0.00 0.00 92 854.4
20260507224527 42 270 3.0 4.0 0.00 0.00 0.00 92 854.4
20260507224327 42 289 3.0 4.0 0.00 0.00 0.00 92 854.4
20260507224227 42 292 3.0 4.0 0.00 0.00 0.00 92 854.4
20260507223927 42 261 4.0 6.0 0.00 0.00 0.00 92 854.4
20260507223723 42 263 5.0 6.0 0.00 0.00 0.00 92 854.4
20260507223525 42 276 4.0 6.0 0.00 0.00 0.00 92 854.4
20260507223325 42 270 4.0 5.0 0.00 0.00 0.00 91 854.4
20260507223223 42 260 4.0 5.0 0.00 0.00 0.00 91 854.4
20260507223125 42 251 4.0 5.0 0.00 0.00 0.00 91 854.4
20260507222924 42 244 4.0 5.0 0.00 0.00 0.00 91 854.4
20260507222721 42 236 5.0 7.0 0.00 0.00 0.00 91 854.4
20260507222522 42 248 5.0 7.0 0.00 0.00 0.00 92 854.4
20260507222322 42 261 5.0 6.0 0.00 0.00 0.00 92 854.4
20260507222221 42 260 5.0 6.0 0.00 0.00 0.00 92 854.4
20260507221922 43 261 5.0 7.0 0.00 0.00 0.00 92 854.4
20260507221718 43 263 4.0 6.0 0.00 0.00 0.00 92 854.3
20260507221518 43 246 4.0 6.0 0.00 0.00 0.00 92 854.3
20260507221318 43 246 4.0 6.0 0.00 0.00 0.00 92 854.3
20260507221217 43 254 4.0 6.0 0.00 0.00 0.00 92 854.3
20260507220917 43 266 4.0 6.0 0.00 0.00 0.00 92 854.3
20260507220714 43 270 4.0 6.0 0.00 0.00 0.00 92 854.3
20260507220315 43 268 5.0 7.0 0.00 0.00 0.00 92 854.2
20260507220214 43 272 5.0 7.0 0.00 0.00 0.00 92 854.2
20260507215914 43 260 5.0 7.0 0.00 0.00 0.00 92 854.2
20260507215711 43 258 4.0 7.0 0.00 0.00 0.00 92 854.2
20260507215511 43 252 4.0 7.0 0.00 0.00 0.00 92 854.2
20260507215311 43 242 5.0 7.0 0.00 0.00 0.00 91 854.2
20260507215210 43 239 5.0 7.0 0.00 0.00 0.00 91 854.2
20260507215112 43 239 5.0 7.0 0.00 0.00 0.00 91 854.1
20260507214911 43 243 5.0 7.0 0.00 0.00 0.00 91 854.1
20260507214654 43 251 4.0 6.0 0.00 0.00 0.00 91 854.1
20260507214455 43 263 5.0 8.0 0.00 0.00 0.00 91 854.1
20260507214255 43 264 5.0 9.0 0.00 0.00 0.00 91 854.1
20260507214154 43 265 5.0 9.0 0.00 0.00 0.00 91 854.1
20260507214055 43 266 5.0 6.0 0.00 0.00 0.00 91 854.1
20260507213855 43 256 4.0 6.0 0.00 0.00 0.00 91 854.0
20260507213651 43 262 4.0 7.0 0.00 0.00 0.00 91 854.0
20260507213454 43 248 6.0 10.0 0.00 0.00 0.00 91 854.0
20260507213253 43 243 6.0 11.0 0.00 0.00 0.00 91 854.1
20260507213151 43 252 6.0 11.0 0.00 0.00 0.00 91 854.1
20260507213052 43 246 7.0 11.0 0.00 0.00 0.00 91 854.2
20260507212853 43 232 6.0 10.0 0.00 0.00 0.00 91 854.4
20260507212649 43 222 7.0 11.0 0.00 0.00 0.00 91 854.5
20260507212449 43 218 7.0 11.0 0.00 0.00 0.00 91 854.5
20260507212250 43 231 7.0 12.0 0.00 0.00 0.00 91 854.5
20260507212149 43 229 8.0 12.0 0.00 0.00 0.00 91 854.5
20260507212049 43 223 8.0 12.0 0.00 0.00 0.00 91 854.5
20260507211849 43 219 7.0 9.0 0.00 0.00 0.00 91 854.5
20260507211645 43 217 7.0 10.0 0.00 0.00 0.00 91 854.5
20260507211447 43 221 7.0 10.0 0.00 0.00 0.00 91 854.4
20260507211246 43 220 7.0 12.0 0.00 0.00 0.00 91 854.4
20260507211145 43 219 7.0 12.0 0.00 0.00 0.00 91 854.4
20260507211046 43 219 7.0 14.0 0.00 0.00 0.00 91 854.4
20260507210846 43 221 6.0 14.0 0.00 0.00 0.00 91 854.4
20260507210642 43 221 6.0 10.0 0.00 0.00 0.00 91 854.4
20260507210443 43 218 7.0 13.0 0.00 0.00 0.00 91 854.4
20260507210243 43 216 7.0 12.0 0.00 0.00 0.00 91 854.4
20260507210142 43 220 7.0 12.0 0.00 0.00 0.00 91 854.4
20260507210043 43 216 7.0 12.0 0.00 0.00 0.00 91 854.4
20260507205639 43 213 6.0 10.0 0.00 0.00 0.00 91 854.4
20260507205440 43 218 6.0 10.0 0.00 0.00 0.00 91 854.4
20260507205240 43 218 7.0 10.0 0.00 0.00 0.00 91 854.4
20260507205139 43 222 7.0 10.0 0.00 0.00 0.00 91 854.4
20260507205040 43 225 7.0 10.0 0.00 0.00 0.00 91 854.4
20260507204840 43 221 6.0 9.0 0.00 0.00 0.00 91 854.4
20260507204636 43 216 6.0 8.0 0.00 0.00 0.00 91 854.4
20260507204436 43 215 6.0 8.0 0.00 0.00 0.00 91 854.4
20260507204237 43 225 5.0 6.0 0.00 0.00 0.00 91 854.4
20260507204136 43 221 5.0 8.0 0.00 0.00 0.00 91 854.4
20260507204037 43 222 5.0 8.0 0.00 0.00 0.00 91 854.4
20260507203836 43 220 5.0 8.0 0.00 0.00 0.00 91 854.4
20260507203633 43 224 5.0 9.0 0.00 0.00 0.00 91 854.4
20260507203233 43 217 6.0 8.0 0.00 0.00 0.00 90 854.4
20260507203133 43 216 6.0 9.0 0.00 0.00 0.00 91 854.4
20260507203034 43 217 6.0 9.0 0.00 0.00 0.00 91 854.4
20260507202833 43 224 6.0 9.0 0.00 0.00 0.00 90 854.4
20260507202630 43 223 4.0 7.0 0.00 0.00 0.00 90 854.4
20260507202431 43 222 5.0 8.0 0.00 0.00 0.00 90 854.3
20260507202231 43 220 6.0 8.0 0.00 0.00 0.00 90 854.3
20260507202130 43 220 5.0 7.0 0.00 0.00 0.00 90 854.3
20260507202030 43 216 5.0 7.0 0.00 0.00 0.00 90 854.3
20260507201830 43 208 5.0 9.0 0.00 0.00 0.00 90 854.3
20260507201627 43 199 5.0 7.0 0.00 0.00 0.00 90 854.4
20260507201428 43 197 6.0 10.0 0.00 0.00 0.00 90 854.4
20260507201228 43 205 6.0 10.0 0.00 0.00 0.00 90 854.4
20260507201127 43 209 6.0 9.0 0.00 0.00 0.00 90 854.4
20260507201028 43 208 6.0 9.0 0.00 0.00 0.00 90 854.4
20260507200624 43 205 4.0 7.0 0.00 0.00 0.00 90 854.4
20260507200425 43 201 5.0 8.0 0.00 0.00 0.00 90 854.4
20260507200224 43 192 6.0 8.0 0.00 0.00 0.00 90 854.4
20260507200124 43 192 6.0 10.0 0.00 0.00 0.00 90 854.4
20260507200024 43 197 6.0 10.0 0.00 0.00 0.00 90 854.5
20260507195824 43 198 6.0 10.0 0.00 0.00 0.00 90 854.5
20260507195620 43 196 7.0 12.0 0.00 0.00 0.00 90 854.4
20260507195421 43 193 8.0 11.0 0.00 0.00 0.00 90 854.4
20260507195221 43 195 7.0 11.0 0.00 0.00 0.00 90 854.4
20260507195120 43 198 6.0 10.0 0.00 0.00 0.00 90 854.4
20260507195021 43 197 7.0 10.0 0.00 0.00 0.00 90 854.4
20260507194821 43 201 7.0 11.0 0.00 0.00 0.00 90 854.3
20260507194617 43 204 5.0 9.0 0.00 0.00 0.00 90 854.3
20260507194418 43 203 6.0 10.0 0.00 0.00 0.00 89 854.3
20260507194218 43 209 6.0 11.0 0.00 0.00 0.00 89 854.2
20260507194117 43 203 6.0 11.0 0.00 0.00 0.00 89 854.2
20260507194019 43 196 6.0 11.0 0.00 0.00 0.00 89 854.2
20260507193817 43 189 7.0 10.0 0.00 0.00 0.00 89 854.2
20260507193614 43 197 6.0 9.0 0.00 0.00 0.00 89 854.2
20260507193415 43 202 6.0 8.0 0.00 0.00 0.00 89 854.2
20260507193215 43 194 7.0 10.0 0.00 0.00 0.00 89 854.3
20260507193114 43 194 6.0 10.0 0.00 0.00 0.00 89 854.3
20260507193015 43 192 6.0 9.0 0.00 0.00 0.00 89 854.3
20260507192824 43 194 6.0 9.0 0.00 0.00 0.00 89 854.3
20260507192611 43 198 6.0 9.0 0.00 0.00 0.00 89 854.3
20260507192412 43 196 6.0 9.0 0.00 0.00 0.00 89 854.3
20260507192212 43 193 6.0 9.0 0.00 0.00 0.00 89 854.3
20260507192111 43 198 6.0 9.0 0.00 0.00 0.00 89 854.3
20260507192012 43 199 6.0 8.0 0.00 0.00 0.00 89 854.3
20260507191813 43 202 6.0 9.0 0.00 0.00 0.00 89 854.2
20260507191608 43 193 8.0 10.0 0.00 0.00 0.00 89 854.2
20260507191409 43 198 7.0 10.0 0.00 0.00 0.00 89 854.2
20260507191210 43 207 6.0 8.0 0.00 0.00 0.00 89 854.2
20260507191055 43 207 6.0 8.0 0.00 0.00 0.00 89 854.2
20260507190956 43 203 5.0 8.0 0.00 0.00 0.00 89 854.2
20260507190756 43 205 5.0 6.0 0.00 0.00 0.00 89 854.1
20260507190552 43 205 6.0 10.0 0.00 0.00 0.00 89 854.1
20260507190353 43 197 7.0 10.0 0.00 0.00 0.00 89 854.2
20260507190154 43 193 8.0 10.0 0.00 0.00 0.00 89 854.2
20260507190052 43 191 8.0 11.0 0.00 0.00 0.00 89 854.2
20260507185952 43 195 8.0 11.0 0.00 0.00 0.00 88 854.2
20260507185753 43 194 8.0 11.0 0.00 0.00 0.00 88 854.2
20260507185549 42 193 6.0 10.0 0.00 0.00 0.00 88 854.2
20260507185350 42 189 6.0 10.0 0.00 0.00 0.00 88 854.1
20260507185150 42 185 7.0 10.0 0.00 0.00 0.00 87 854.1
20260507185049 42 185 6.0 10.0 0.00 0.00 0.00 87 854.1
20260507184949 42 189 7.0 10.0 0.00 0.00 0.00 87 854.1
20260507184749 42 191 7.0 11.0 0.00 0.00 0.00 87 854.0
20260507184546 42 191 7.0 11.0 0.00 0.00 0.00 87 853.9
20260507184348 42 190 8.0 10.0 0.00 0.00 0.00 87 853.9
20260507184146 42 194 7.0 9.0 0.00 0.00 0.00 87 853.9
20260507184046 42 191 6.0 8.0 0.00 0.00 0.00 87 853.9
20260507183947 42 193 6.0 8.0 0.00 0.00 0.00 87 853.9
20260507183746 42 184 5.0 6.0 0.00 0.00 0.00 87 853.9
20260507183543 42 182 5.0 7.0 0.00 0.00 0.00 87 853.9
20260507183344 42 186 5.0 8.0 0.00 0.00 0.00 87 853.9
20260507183143 42 182 6.0 7.0 0.00 0.00 0.00 87 853.9
20260507183043 42 180 6.0 7.0 0.00 0.00 0.00 87 853.9
20260507182944 42 182 6.0 8.0 0.00 0.00 0.00 88 853.9
20260507182743 42 185 6.0 8.0 0.00 0.00 0.00 88 853.9
20260507182540 42 183 5.0 7.0 0.00 0.00 0.00 88 853.8
20260507182341 42 185 5.0 7.0 0.00 0.00 0.00 88 853.8
20260507182142 42 186 5.0 8.0 0.00 0.00 0.00 88 853.8
20260507182040 42 186 5.0 8.0 0.00 0.00 0.00 87 853.8
20260507181942 42 185 5.0 7.0 0.00 0.00 0.00 87 853.8
20260507181740 42 182 4.0 6.0 0.00 0.00 0.00 87 853.8
20260507181537 42 188 5.0 8.0 0.00 0.00 0.00 87 853.8
20260507181337 42 194 6.0 8.0 0.00 0.00 0.00 87 853.8
20260507181138 42 194 6.0 8.0 0.00 0.00 0.00 87 853.7
20260507181037 42 195 6.0 8.0 0.00 0.00 0.00 87 853.7
20260507180938 43 195 6.0 8.0 0.00 0.00 0.00 87 853.7
20260507180738 43 209 5.0 7.0 0.00 0.00 0.00 87 853.7
20260507180533 43 216 4.0 7.0 0.00 0.00 0.00 87 853.7
20260507180335 43 203 4.0 7.0 0.00 0.00 0.00 87 853.6
20260507180135 43 199 4.0 6.0 0.00 0.00 0.00 88 853.6
20260507180034 43 201 4.0 6.0 0.00 0.00 0.00 88 853.6
20260507175935 43 202 4.0 6.0 0.00 0.00 0.00 88 853.6
20260507175734 43 197 5.0 6.0 0.00 0.00 0.00 88 853.6
20260507175531 44 194 6.0 9.0 0.00 0.00 0.00 88 853.6
20260507175331 44 194 7.0 10.0 0.00 0.00 0.00 88 853.6
20260507175131 44 196 8.0 11.0 0.00 0.00 0.00 88 853.6
20260507175031 44 195 8.0 11.0 0.00 0.00 0.00 88 853.6
20260507174931 43 192 8.0 11.0 0.00 0.00 0.00 88 853.6
20260507174731 43 194 6.0 11.0 0.00 0.00 0.00 88 853.5
20260507174528 43 185 6.0 9.0 0.00 0.00 0.00 88 853.5
20260507174329 43 183 6.0 8.0 0.00 0.00 0.00 88 853.5
20260507174129 43 192 7.0 10.0 0.00 0.00 0.00 88 853.6
20260507174027 43 197 6.0 10.0 0.00 0.00 0.00 88 853.6
20260507173929 43 196 7.0 10.0 0.00 0.00 0.00 88 853.6
20260507173728 43 187 8.0 11.0 0.00 0.00 0.00 88 853.6
20260507173524 43 191 7.0 11.0 0.00 0.00 0.00 88 853.6
20260507173325 43 189 6.0 11.0 0.00 0.00 0.00 88 853.6
20260507173125 43 186 6.0 8.0 0.00 0.00 0.00 88 853.6
20260507173024 43 188 6.0 8.0 0.00 0.00 0.00 88 853.6
20260507172925 43 188 6.0 8.0 0.00 0.00 0.00 88 853.6
20260507172725 43 187 6.0 7.0 0.00 0.00 0.00 88 853.6
20260507172521 43 192 6.0 9.0 0.00 0.00 0.00 88 853.6
20260507172323 43 192 5.0 9.0 0.00 0.00 0.00 88 853.6
20260507172122 43 191 6.0 7.0 0.00 0.00 0.00 88 853.6
20260507172021 43 189 5.0 7.0 0.00 0.00 0.00 88 853.6
20260507171723 43 194 5.0 7.0 0.00 0.00 0.00 88 853.5
20260507171518 43 189 4.0 6.0 0.00 0.00 0.00 88 853.5
20260507171321 43 193 4.0 6.0 0.00 0.00 0.00 88 853.5
20260507171119 43 189 4.0 6.0 0.00 0.00 0.00 88 853.5
20260507171018 43 187 4.0 6.0 0.00 0.00 0.00 88 853.5
20260507170919 43 189 4.0 6.0 0.00 0.00 0.00 88 853.5
20260507170719 43 187 5.0 7.0 0.00 0.00 0.00 88 853.5
20260507170515 43 183 5.0 7.0 0.00 0.00 0.00 88 853.5
20260507170316 43 192 5.0 7.0 0.00 0.00 0.00 88 853.5
20260507170117 43 193 5.0 7.0 0.00 0.00 0.00 88 853.5
20260507170015 43 200 4.0 7.0 0.00 0.00 0.00 88 853.5
20260507165716 43 221 4.0 6.0 0.00 0.00 0.00 88 853.4
20260507165512 43 230 4.0 6.0 0.00 0.00 0.00 88 853.4
20260507165313 43 233 4.0 6.0 0.00 0.00 0.00 88 853.4
20260507165012 44 262 3.0 4.0 0.00 0.00 0.00 88 853.4
20260507164913 44 271 3.0 4.0 0.00 0.00 0.00 88 853.4
20260507164713 44 270 3.0 4.0 0.00 0.00 0.00 88 853.4
20260507164509 44 243 4.0 7.0 0.00 0.00 0.00 87 853.4
20260507164310 44 225 5.0 8.0 0.00 0.00 0.00 88 853.4
20260507164110 44 243 6.0 9.0 0.00 0.00 0.00 88 853.4
20260507164009 44 263 5.0 9.0 0.00 0.00 0.00 88 853.4
20260507163911 45 279 4.0 9.0 0.00 0.00 0.00 87 853.3
20260507163710 45 245 5.0 7.0 0.00 0.00 0.00 87 853.3
20260507163453 45 193 5.0 7.0 0.00 0.00 0.00 87 853.4
20260507162953 45 214 5.0 10.0 0.00 0.00 0.00 87 853.3
20260507162855 45 210 5.0 10.0 0.00 0.00 0.00 87 853.3
20260507162654 45 203 4.0 8.0 0.00 0.00 0.00 87 853.3
20260507162450 45 209 4.0 7.0 0.00 0.00 0.00 87 853.2
20260507162251 45 200 4.0 8.0 0.00 0.00 0.00 87 853.2
20260507162052 45 205 6.0 9.0 0.00 0.00 0.00 87 853.2
20260507161950 45 212 5.0 9.0 0.00 0.00 0.00 87 853.2
20260507161850 45 207 6.0 9.0 0.00 0.00 0.00 87 853.2
20260507161651 45 203 6.0 9.0 0.00 0.00 0.00 87 853.2
20260507161447 45 207 6.0 9.0 0.00 0.00 0.00 87 853.2
20260507161248 45 210 7.0 9.0 0.00 0.00 0.00 87 853.2
20260507161049 45 213 7.0 10.0 0.00 0.00 0.00 87 853.3
20260507160947 45 214 6.0 10.0 0.00 0.00 0.00 87 853.3
20260507160849 45 215 6.0 10.0 0.00 0.00 0.00 87 853.3
20260507160648 45 228 5.0 8.0 0.00 0.00 0.00 87 853.3
20260507160444 45 219 4.0 10.0 0.00 0.00 0.00 87 853.3
20260507160245 45 209 4.0 7.0 0.00 0.00 0.00 87 853.3
20260507160045 46 196 5.0 7.0 0.00 0.00 0.00 87 853.3
20260507155944 46 203 5.0 8.0 0.00 0.00 0.00 86 853.3
20260507155844 46 206 5.0 8.0 0.00 0.00 0.00 86 853.3
20260507155645 46 203 6.0 8.0 0.00 0.00 0.00 86 853.2
20260507155441 46 201 6.0 10.0 0.00 0.00 0.00 86 853.2
20260507155243 46 197 4.0 9.0 0.00 0.00 0.00 86 853.2
20260507155042 46 191 5.0 8.0 0.00 0.00 0.00 86 853.3
20260507154941 46 199 5.0 8.0 0.00 0.00 0.00 86 853.3
20260507154842 46 200 5.0 9.0 0.00 0.00 0.00 86 853.3
20260507154641 46 208 4.0 9.0 0.00 0.00 0.00 86 853.3
20260507154438 46 215 4.0 8.0 0.00 0.00 0.00 86 853.3
20260507154239 46 209 3.0 8.0 0.00 0.00 0.00 86 853.3
20260507153938 46 205 5.0 8.0 0.00 0.00 0.00 86 853.3
20260507153835 46 200 5.0 8.0 0.00 0.00 0.00 86 853.3
20260507153635 46 194 5.0 8.0 0.00 0.00 0.00 86 853.2
20260507153432 46 186 5.0 9.0 0.00 0.00 0.00 86 853.2
20260507153233 46 189 4.0 6.0 0.00 0.00 0.00 86 853.3
20260507152931 46 198 5.0 9.0 0.00 0.00 0.00 86 853.3
20260507152833 46 197 6.0 9.0 0.00 0.00 0.00 86 853.3
20260507152633 46 199 5.0 7.0 0.00 0.00 0.00 86 853.3
20260507152428 46 199 4.0 7.0 0.00 0.00 0.00 86 853.3
20260507152230 46 194 4.0 7.0 0.00 0.00 0.00 85 853.3
20260507152030 46 192 5.0 6.0 0.00 0.00 0.00 85 853.3
20260507151928 46 192 5.0 8.0 0.00 0.00 0.00 85 853.3
20260507151829 46 191 5.0 8.0 0.00 0.00 0.00 85 853.3
20260507151629 46 196 4.0 7.0 0.00 0.00 0.00 85 853.2
20260507151425 46 199 4.0 7.0 0.00 0.00 0.00 85 853.2
20260507151227 46 197 4.0 7.0 0.00 0.00 0.00 85 853.2
20260507151026 46 197 4.0 6.0 0.00 0.00 0.00 85 853.2
20260507150925 46 195 4.0 6.0 0.00 0.00 0.00 85 853.2
20260507150828 46 191 5.0 7.0 0.00 0.00 0.00 85 853.2
20260507150627 46 196 6.0 7.0 0.00 0.00 0.00 85 853.1
20260507150423 46 200 4.0 6.0 0.00 0.00 0.00 85 853.1
20260507150224 47 204 4.0 6.0 0.00 0.00 0.00 85 853.1
20260507145923 47 201 3.0 6.0 0.00 0.00 0.00 85 853.1
20260507145824 47 199 3.0 6.0 0.00 0.00 0.00 85 853.2
20260507145624 47 194 4.0 7.0 0.00 0.00 0.00 84 853.2
20260507145420 47 197 5.0 7.0 0.00 0.00 0.00 84 853.1
20260507145221 47 207 4.0 5.0 0.00 0.00 0.00 84 853.1
20260507144920 47 208 5.0 7.0 0.00 0.00 0.00 84 853.1
20260507144820 47 207 5.0 7.0 0.00 0.00 0.00 84 853.1
20260507144621 48 204 4.0 6.0 0.00 0.00 0.00 84 853.1
20260507144417 48 208 4.0 6.0 0.00 0.00 0.00 84 853.0
20260507144218 48 208 4.0 6.0 0.00 0.00 0.00 84 852.9
20260507144018 48 205 4.0 6.0 0.00 0.00 0.00 84 852.9
20260507143917 48 211 3.0 5.0 0.00 0.00 0.00 84 852.9
20260507143414 48 216 5.0 7.0 0.00 0.00 0.00 84 852.9
20260507143014 48 208 6.0 8.0 0.00 0.00 0.00 85 852.9
20260507142914 48 208 5.0 8.0 0.00 0.00 0.00 85 852.9
20260507142814 48 213 4.0 8.0 0.00 0.00 0.00 85 852.9
20260507142614 48 208 4.0 7.0 0.00 0.00 0.00 85 852.9
20260507142411 47 212 6.0 10.0 0.00 0.00 0.00 85 852.9
20260507142212 47 216 5.0 8.0 0.00 0.00 0.00 85 852.9
20260507141911 47 206 7.0 10.0 0.00 0.00 0.00 85 852.9
20260507141812 47 205 7.0 10.0 0.00 0.00 0.00 85 852.9
20260507141612 47 205 5.0 8.0 0.00 0.00 0.00 85 852.9
20260507141408 47 216 5.0 8.0 0.00 0.00 0.00 85 852.9
20260507141209 47 209 5.0 8.0 0.00 0.00 0.00 85 852.9
20260507141008 47 197 5.0 8.0 0.00 0.00 0.00 85 852.9
20260507140908 47 194 6.0 9.0 0.00 0.00 0.00 85 853.0
20260507140809 46 196 6.0 9.0 0.00 0.00 0.00 85 853.0
20260507140609 46 197 6.0 9.0 0.00 0.00 0.00 85 853.0
20260507140406 46 190 6.0 8.0 0.00 0.00 0.00 85 853.0
20260507140206 46 193 6.0 8.0 0.00 0.00 0.00 85 853.1
20260507140007 46 194 6.0 8.0 0.00 0.00 0.00 85 853.1
20260507135852 46 192 6.0 8.0 0.00 0.00 0.00 85 853.2
20260507135753 46 193 6.0 8.0 0.00 0.00 0.00 85 853.2
20260507135349 45 192 6.0 9.0 0.00 0.00 0.00 85 853.2
20260507135150 45 193 6.0 10.0 0.00 0.00 0.00 85 853.2
20260507134951 45 193 6.0 9.0 0.00 0.00 0.00 85 853.2
20260507134849 45 192 6.0 9.0 0.00 0.00 0.00 85 853.2
20260507134749 45 194 7.0 9.0 0.00 0.00 0.00 85 853.1
20260507134550 45 194 6.0 9.0 0.00 0.00 0.00 85 853.2
20260507134346 45 190 5.0 7.0 0.00 0.00 0.00 85 853.3
20260507134147 45 197 5.0 7.0 0.00 0.00 0.00 85 853.3
20260507133947 45 194 5.0 7.0 0.00 0.00 0.00 85 853.3
20260507133846 45 189 5.0 7.0 0.00 0.00 0.00 85 853.3
20260507133747 44 195 5.0 8.0 0.00 0.00 0.00 85 853.3
20260507133546 44 198 5.0 8.0 0.00 0.00 0.00 85 853.4
20260507133343 44 195 5.0 7.0 0.00 0.00 0.00 85 853.4
20260507133145 44 196 6.0 10.0 0.00 0.00 0.00 85 853.4
20260507132944 44 192 6.0 8.0 0.00 0.00 0.00 85 853.4
20260507132843 44 192 6.0 8.0 0.00 0.00 0.00 85 853.4
20260507132745 44 189 6.0 9.0 0.00 0.00 0.00 85 853.5
20260507132340 44 190 6.0 11.0 0.00 0.00 0.00 84 853.5
20260507132141 44 185 5.0 8.0 0.00 0.00 0.00 84 853.5
20260507131941 44 180 4.0 8.0 0.00 0.00 0.00 84 853.6
20260507131840 44 177 4.0 8.0 0.00 0.00 0.00 84 853.6
20260507131741 44 178 3.0 5.0 0.00 0.00 0.00 84 853.6
20260507131540 44 177 3.0 5.0 0.00 0.00 0.00 84 853.6
20260507131337 45 178 4.0 6.0 0.00 0.00 0.00 84 853.6
20260507131138 45 186 4.0 7.0 0.00 0.00 0.00 84 853.7
20260507130939 45 170 3.0 5.0 0.00 0.00 0.00 84 853.7
20260507130837 45 166 2.0 5.0 0.00 0.00 0.00 84 853.7
20260507130738 45 174 3.0 6.0 0.00 0.00 0.00 84 853.8
20260507130538 45 193 6.0 10.0 0.00 0.00 0.00 84 853.8
20260507130334 45 190 6.0 10.0 0.00 0.00 0.00 84 853.9
20260507130134 45 191 5.0 8.0 0.00 0.00 0.00 84 853.9
20260507125934 45 194 7.0 11.0 0.00 0.00 0.00 84 853.9
20260507125834 45 196 7.0 11.0 0.00 0.00 0.00 84 853.9
20260507125734 46 199 7.0 11.0 0.00 0.00 0.00 84 853.9
20260507125534 46 205 6.0 9.0 0.00 0.00 0.00 84 853.6
20260507125331 46 204 6.0 9.0 0.00 0.00 0.00 84 853.3
20260507125131 46 211 5.0 9.0 0.00 0.00 0.00 84 853.1
20260507124932 46 207 5.0 6.0 0.00 0.00 0.00 84 852.9
20260507124830 46 208 4.0 6.0 0.00 0.00 0.00 84 852.9
20260507124731 46 205 4.0 8.0 0.00 0.00 0.00 84 852.9
20260507124530 46 197 6.0 9.0 0.00 0.00 0.00 84 852.8
20260507124327 46 200 6.0 10.0 0.00 0.00 0.00 84 852.7
20260507124128 46 198 6.0 9.0 0.00 0.00 0.00 84 852.7
20260507123827 46 190 6.0 11.0 0.00 0.00 0.00 83 852.7
20260507123728 46 193 5.0 8.0 0.00 0.00 0.00 83 852.8
20260507123528 46 204 5.0 7.0 0.00 0.00 0.00 83 852.8
20260507123324 46 195 6.0 8.0 0.00 0.00 0.00 83 853.0
20260507123126 46 196 6.0 10.0 0.00 0.00 0.00 83 853.1
20260507122925 46 204 6.0 10.0 0.00 0.00 0.00 83 853.1
20260507122824 46 209 5.0 8.0 0.00 0.00 0.00 83 853.1
20260507122726 46 214 6.0 8.0 0.00 0.00 0.00 83 853.1
20260507122526 46 218 7.0 9.0 0.00 0.00 0.00 83 853.1
20260507122321 46 218 8.0 11.0 0.00 0.00 0.00 83 853.0
20260507122123 46 230 8.0 11.0 0.00 0.00 0.00 83 853.0
20260507121822 46 228 8.0 13.0 0.00 0.00 0.00 82 853.0
20260507121722 46 228 8.0 13.0 0.00 0.00 0.00 82 853.0
20260507121523 46 228 8.0 12.0 0.00 0.00 0.00 82 853.1
20260507121319 46 219 8.0 12.0 0.00 0.00 0.00 82 853.1
20260507120819 46 217 7.0 8.0 0.00 0.00 0.00 82 853.2
20260507120719 47 219 6.0 8.0 0.00 0.00 0.00 82 853.2
20260507120520 47 218 6.0 10.0 0.00 0.00 0.00 82 853.2
20260507120316 47 221 6.0 10.0 0.00 0.00 0.00 82 853.2
20260507120115 47 237 7.0 10.0 0.00 0.00 0.00 82 853.2
20260507115815 47 220 8.0 14.0 0.00 0.00 0.00 82 853.2
20260507115716 47 220 8.0 14.0 0.00 0.00 0.00 82 853.2
20260507115312 47 215 7.0 10.0 0.00 0.00 0.00 82 853.2
20260507115113 47 211 6.0 10.0 0.00 0.00 0.00 81 853.2
20260507114913 47 220 6.0 9.0 0.00 0.00 0.00 81 853.2
20260507114812 47 219 7.0 12.0 0.00 0.00 0.00 81 853.2
20260507114712 48 219 7.0 12.0 0.00 0.00 0.00 81 853.2
20260507114512 48 223 6.0 8.0 0.00 0.00 0.00 81 853.2
20260507114309 48 220 7.0 11.0 0.00 0.00 0.00 81 853.2
20260507114120 48 219 6.0 10.0 0.00 0.00 0.00 81 853.1
20260507113910 48 227 5.0 7.0 0.00 0.00 0.00 81 853.2
20260507113809 48 224 5.0 8.0 0.00 0.00 0.00 81 853.1
20260507113710 48 222 6.0 8.0 0.00 0.00 0.00 81 853.1
20260507113306 49 228 5.0 7.0 0.00 0.00 0.00 80 853.1
20260507113107 49 230 6.0 9.0 0.00 0.00 0.00 80 853.2
20260507112907 49 234 6.0 10.0 0.00 0.00 0.00 80 853.2
20260507112806 49 229 6.0 10.0 0.00 0.00 0.00 80 853.2
20260507112250 50 229 6.0 9.0 0.00 0.00 0.00 79 853.2
20260507112051 50 232 6.0 9.0 0.00 0.00 0.00 79 853.1
20260507111851 50 236 6.0 8.0 0.00 0.00 0.00 79 853.1
20260507111750 51 240 6.0 9.0 0.00 0.00 0.00 78 853.0
20260507111653 51 239 7.0 9.0 0.00 0.00 0.00 78 853.0
20260507111451 51 234 5.0 9.0 0.00 0.00 0.00 78 853.0
20260507111247 51 234 5.0 7.0 0.00 0.00 0.00 78 853.0
20260507111048 51 258 4.0 6.0 0.00 0.00 0.00 78 853.0
20260507110848 51 240 5.0 8.0 0.00 0.00 0.00 78 853.0
20260507110746 51 233 5.0 8.0 0.00 0.00 0.00 78 853.0
20260507110447 51 217 7.0 10.0 0.00 0.00 0.00 78 852.9
20260507110243 51 219 5.0 10.0 0.00 0.00 0.00 78 852.9
20260507110045 51 225 5.0 8.0 0.00 0.00 0.00 78 852.9
20260507105743 51 233 7.0 11.0 0.00 0.00 0.00 78 852.9
20260507105644 51 234 6.0 9.0 0.00 0.00 0.00 78 852.9
20260507105444 52 241 6.0 8.0 0.00 0.00 0.00 78 852.9
20260507105240 51 233 6.0 11.0 0.00 0.00 0.00 78 852.9
20260507105040 51 232 6.0 11.0 0.00 0.00 0.00 79 852.9
20260507104840 51 233 5.0 7.0 0.00 0.00 0.00 79 852.9
20260507104740 51 226 5.0 6.0 0.00 0.00 0.00 79 852.9
20260507104640 50 224 4.0 6.0 0.00 0.00 0.00 79 852.9
20260507104441 50 220 6.0 8.0 0.00 0.00 0.00 79 853.0
20260507104237 50 230 6.0 9.0 0.00 0.00 0.00 79 853.0
20260507104039 50 246 5.0 6.0 0.00 0.00 0.00 79 853.0
20260507104026 51 223 6.0 10.0 0.00 0.00 0.00 78 852.9
20260507103838 51 226 6.0 10.0 0.00 0.00 0.00 78 852.9
20260507103737 51 223 6.0 10.0 0.00 0.00 0.00 78 852.9
20260507103639 51 222 6.0 10.0 0.00 0.00 0.00 78 852.9
20260507103438 51 225 6.0 9.0 0.00 0.00 0.00 79 852.9
20260507103234 51 234 6.0 8.0 0.00 0.00 0.00 78 852.8
20260507103035 51 230 6.0 9.0 0.00 0.00 0.00 79 852.8
20260507102835 51 225 5.0 8.0 0.00 0.00 0.00 79 852.8
20260507102734 51 228 5.0 8.0 0.00 0.00 0.00 79 852.8
20260507102634 51 225 5.0 8.0 0.00 0.00 0.00 79 852.8
20260507102434 51 221 5.0 8.0 0.00 0.00 0.00 79 852.8
20260507102231 51 236 5.0 7.0 0.00 0.00 0.00 79 852.8
20260507102032 51 217 4.0 7.0 0.00 0.00 0.00 79 852.7
20260507101833 51 214 5.0 9.0 0.00 0.00 0.00 79 852.8
20260507101731 51 225 6.0 9.0 0.00 0.00 0.00 79 852.8
20260507101632 50 228 6.0 9.0 0.00 0.00 0.00 79 852.7
20260507101431 50 232 6.0 9.0 0.00 0.00 0.00 79 852.8
20260507101228 50 236 6.0 9.0 0.00 0.00 0.00 79 852.8
20260507101039 51 229 6.0 9.0 0.00 0.00 0.00 79 852.7
20260507101029 50 232 7.0 10.0 0.00 0.00 0.00 79 852.7
20260507100828 51 230 7.0 10.0 0.00 0.00 0.00 79 852.7
20260507100728 51 229 6.0 9.0 0.00 0.00 0.00 79 852.7
20260507100629 51 232 7.0 12.0 0.00 0.00 0.00 79 852.7
20260507100428 51 229 6.0 12.0 0.00 0.00 0.00 79 852.7
20260507100225 51 235 6.0 9.0 0.00 0.00 0.00 79 852.7
20260507100026 51 238 7.0 10.0 0.00 0.00 0.00 79 852.7
20260507095826 51 239 6.0 10.0 0.00 0.00 0.00 80 852.6
20260507095725 51 237 6.0 9.0 0.00 0.00 0.00 80 852.6
20260507095626 51 243 5.0 7.0 0.00 0.00 0.00 80 852.6
20260507095426 50 238 5.0 8.0 0.00 0.00 0.00 80 852.6
20260507095222 50 234 5.0 9.0 0.00 0.00 0.00 80 852.6
20260507095023 50 235 6.0 8.0 0.00 0.00 0.00 80 852.6
20260507094823 50 225 6.0 8.0 0.00 0.00 0.00 80 852.6
20260507094722 50 237 6.0 9.0 0.00 0.00 0.00 80 852.6
20260507094623 50 242 6.0 9.0 0.00 0.00 0.00 80 852.5
20260507094422 50 239 6.0 10.0 0.00 0.00 0.00 80 852.5
20260507094219 50 239 6.0 10.0 0.00 0.00 0.00 80 852.5
20260507094021 49 235 7.0 10.0 0.00 0.00 0.00 80 852.5
20260507093820 49 247 6.0 9.0 0.00 0.00 0.00 80 852.5
20260507093719 49 248 6.0 8.0 0.00 0.00 0.00 81 852.5
20260507093621 49 244 6.0 9.0 0.00 0.00 0.00 81 852.6
20260507093421 49 228 7.0 10.0 0.00 0.00 0.00 81 852.6
20260507093216 49 231 7.0 10.0 0.00 0.00 0.00 81 852.6
20260507093018 49 240 7.0 11.0 0.00 0.00 0.00 80 852.6
20260507092817 49 235 7.0 14.0 0.00 0.00 0.00 80 852.6
20260507092716 49 241 8.0 14.0 0.00 0.00 0.00 80 852.5
20260507092617 49 242 8.0 14.0 0.00 0.00 0.00 80 852.5
20260507092417 49 237 8.0 9.0 0.00 0.00 0.00 80 852.5
20260507092213 49 241 5.0 8.0 0.00 0.00 0.00 80 852.4
20260507092013 49 240 5.0 11.0 0.00 0.00 0.00 80 852.4
20260507091813 49 244 7.0 11.0 0.00 0.00 0.00 80 852.4
20260507091712 48 244 7.0 10.0 0.00 0.00 0.00 80 852.4
20260507091613 48 243 7.0 10.0 0.00 0.00 0.00 80 852.4
20260507091413 49 241 8.0 12.0 0.00 0.00 0.00 80 852.4
20260507091209 49 242 7.0 9.0 0.00 0.00 0.00 80 852.5
20260507091010 49 234 8.0 12.0 0.00 0.00 0.00 80 852.4
20260507090810 49 233 7.0 11.0 0.00 0.00 0.00 80 852.3
20260507090709 49 234 7.0 10.0 0.00 0.00 0.00 80 852.3
20260507090610 49 237 7.0 11.0 0.00 0.00 0.00 80 852.2
20260507090409 50 246 8.0 11.0 0.00 0.00 0.00 80 852.2
20260507090206 50 250 7.0 11.0 0.00 0.00 0.00 80 852.2
20260507090007 49 234 7.0 9.0 0.00 0.00 0.00 80 852.2
20260507085808 49 230 7.0 9.0 0.00 0.00 0.00 80 852.2
20260507085706 49 234 7.0 9.0 0.00 0.00 0.00 80 852.2
20260507085608 49 235 7.0 11.0 0.00 0.00 0.00 80 852.2
20260507085408 49 244 6.0 11.0 0.00 0.00 0.00 80 852.2
20260507085203 50 245 6.0 9.0 0.00 0.00 0.00 79 852.2
20260507084804 50 241 7.0 12.0 0.00 0.00 0.00 79 852.1
20260507084650 50 241 7.0 12.0 0.00 0.00 0.00 79 852.1
20260507084351 50 236 8.0 11.0 0.00 0.00 0.00 79 852.1
20260507084147 50 230 8.0 11.0 0.00 0.00 0.00 79 852.1
20260507083748 51 242 6.0 12.0 0.00 0.00 0.00 79 851.9
20260507083647 51 243 6.0 12.0 0.00 0.00 0.00 79 851.9
20260507083347 51 236 7.0 14.0 0.00 0.00 0.00 79 851.8
20260507083143 51 246 6.0 13.0 0.00 0.00 0.00 79 851.7
20260507082945 51 244 5.0 9.0 0.00 0.00 0.00 80 851.6
20260507082744 50 236 6.0 9.0 0.00 0.00 0.00 80 851.7
20260507082643 50 235 6.0 12.0 0.00 0.00 0.00 80 851.7
20260507082546 50 232 7.0 12.0 0.00 0.00 0.00 79 851.7
20260507082343 50 224 8.0 13.0 0.00 0.00 0.00 79 851.7
20260507082140 50 216 8.0 13.0 0.00 0.00 0.00 79 851.7
20260507081943 50 213 7.0 11.0 0.00 0.00 0.00 80 851.7
20260507081742 50 218 6.0 10.0 0.00 0.00 0.00 80 851.6
20260507081641 50 226 6.0 11.0 0.00 0.00 0.00 80 851.6
20260507081540 50 227 8.0 12.0 0.00 0.00 0.00 80 851.5
20260507081137 50 238 6.0 10.0 0.00 0.00 0.00 80 851.5
20260507080939 50 243 6.0 11.0 0.00 0.00 0.00 80 851.5
20260507080739 50 238 8.0 11.0 0.00 0.00 0.00 80 851.4
20260507080637 49 236 8.0 12.0 0.00 0.00 0.00 80 851.4
20260507080539 49 235 8.0 12.0 0.00 0.00 0.00 80 851.4
20260507080338 49 218 8.0 13.0 0.00 0.00 0.00 80 851.5
20260507080134 49 221 9.0 13.0 0.00 0.00 0.00 80 851.5
20260507075735 49 215 7.0 15.0 0.00 0.00 0.00 80 851.5
20260507075634 49 212 7.0 15.0 0.00 0.00 0.00 80 851.5
20260507075534 49 218 8.0 15.0 0.00 0.00 0.00 80 851.5
20260507075334 49 222 6.0 14.0 0.00 0.00 0.00 81 851.4
20260507075131 49 230 7.0 13.0 0.00 0.00 0.00 80 851.4
20260507074932 49 230 8.0 13.0 0.00 0.00 0.00 81 851.3
20260507074732 49 222 10.0 15.0 0.00 0.00 0.00 81 851.2
20260507074630 48 216 9.0 15.0 0.00 0.00 0.00 81 851.2
20260507074532 48 216 8.0 14.0 0.00 0.00 0.00 81 851.3
20260507074331 48 213 10.0 15.0 0.00 0.00 0.00 81 851.2
20260507074128 48 218 10.0 15.0 0.00 0.00 0.00 81 851.1
20260507073928 48 210 8.0 12.0 0.00 0.00 0.00 81 851.1
20260507073728 48 203 8.0 15.0 0.00 0.00 0.00 81 851.1
20260507073628 48 211 8.0 15.0 0.00 0.00 0.00 81 851.1
20260507073528 48 215 7.0 15.0 0.00 0.00 0.00 81 851.1
20260507073329 48 214 7.0 15.0 0.00 0.00 0.00 81 851.1
20260507073125 48 209 7.0 12.0 0.00 0.00 0.00 81 851.2
20260507072926 48 210 9.0 14.0 0.00 0.00 0.00 81 851.2
20260507072727 48 203 8.0 14.0 0.00 0.00 0.00 81 851.1
20260507072625 48 209 8.0 14.0 0.00 0.00 0.00 81 851.1
20260507072526 48 203 8.0 14.0 0.00 0.00 0.00 81 851.1
20260507072326 48 202 9.0 14.0 0.00 0.00 0.00 81 851.0
20260507072122 48 209 7.0 14.0 0.00 0.00 0.00 81 850.9
20260507071924 48 201 7.0 11.0 0.00 0.00 0.00 81 850.9
20260507071722 48 214 6.0 12.0 0.00 0.00 0.00 81 850.8
20260507071622 48 212 6.0 12.0 0.00 0.00 0.00 81 850.8
20260507071523 48 208 5.0 10.0 0.00 0.00 0.00 81 850.8
20260507071323 48 183 5.0 8.0 0.00 0.00 0.00 81 850.8
20260507071119 48 185 6.0 11.0 0.00 0.00 0.00 81 850.9
20260507070919 48 189 7.0 14.0 0.00 0.00 0.00 82 850.9
20260507070719 48 199 6.0 13.0 0.00 0.00 0.00 82 850.8
20260507070618 48 202 6.0 10.0 0.00 0.00 0.00 82 850.9
20260507070520 48 193 6.0 10.0 0.00 0.00 0.00 82 850.9
20260507070330 48 230 5.0 10.0 0.00 0.00 0.00 82 850.8
20260507070115 48 220 4.0 10.0 0.00 0.00 0.00 82 850.7
20260507065917 48 234 4.0 8.0 0.00 0.00 0.00 82 850.6
20260507065716 47 233 7.0 11.0 0.00 0.00 0.00 82 850.6
20260507065615 47 231 6.0 11.0 0.00 0.00 0.00 82 850.6
20260507065112 47 203 8.0 13.0 0.00 0.00 0.00 82 850.5
20260507064913 47 204 9.0 16.0 0.00 0.00 0.00 82 850.5
20260507064714 47 207 10.0 16.0 0.00 0.00 0.00 82 850.5
20260507064612 47 200 10.0 16.0 0.00 0.00 0.00 82 850.5
20260507064313 47 201 11.0 19.0 0.00 0.00 0.00 82 850.5
20260507064110 47 206 9.0 16.0 0.00 0.00 0.00 82 850.5
20260507063911 47 206 6.0 12.0 0.00 0.00 0.00 82 850.5
20260507063711 47 210 10.0 22.0 0.00 0.00 0.00 82 850.5
20260507063610 47 206 11.0 22.0 0.00 0.00 0.00 82 850.5
20260507063510 47 208 11.0 15.0 0.00 0.00 0.00 82 850.5
20260507063310 47 207 11.0 15.0 0.00 0.00 0.00 82 850.3
20260507063107 46 199 15.0 22.0 0.00 0.00 0.00 82 850.3
20260507062907 46 203 15.0 22.0 0.00 0.00 0.00 82 850.3
20260507062707 46 199 13.0 18.0 0.00 0.00 0.00 82 850.3
20260507062607 46 201 14.0 22.0 0.00 0.00 0.00 82 850.3
20260507062508 46 197 15.0 22.0 0.00 0.00 0.00 82 850.3
20260507062308 46 193 14.0 21.0 0.00 0.00 0.00 82 850.3
20260507062104 46 194 13.0 20.0 0.00 0.00 0.00 82 850.3
20260507061905 46 191 14.0 20.0 0.00 0.00 0.00 82 850.2
20260507061706 46 191 13.0 23.0 0.00 0.00 0.00 82 850.2
20260507061604 47 191 14.0 23.0 0.00 0.00 0.00 82 850.1
20260507061506 47 193 14.0 19.0 0.00 0.00 0.00 82 850.1
20260507061306 47 198 15.0 21.0 0.00 0.00 0.00 82 850.1
20260507061047 47 198 14.0 18.0 0.00 0.00 0.00 82 850.1
20260507060849 47 203 12.0 18.0 0.00 0.00 0.00 83 850.1
20260507060649 46 199 14.0 22.0 0.00 0.00 0.00 83 850.0
20260507060547 46 199 14.0 22.0 0.00 0.00 0.00 83 850.0
20260507060449 46 199 13.0 22.0 0.00 0.00 0.00 83 850.0
20260507060248 46 195 12.0 22.0 0.00 0.00 0.00 83 850.0
20260507060044 46 194 13.0 22.0 0.00 0.00 0.00 83 850.0
20260507055846 46 199 13.0 23.0 0.00 0.00 0.00 83 850.0
20260507055645 46 193 12.0 15.0 0.00 0.00 0.00 83 850.0
20260507055544 46 189 12.0 19.0 0.00 0.00 0.00 83 850.0
20260507055446 46 190 13.0 19.0 0.00 0.00 0.00 83 850.0
20260507055245 46 193 12.0 19.0 0.00 0.00 0.00 83 850.0
20260507055041 46 193 13.0 22.0 0.00 0.00 0.00 83 850.0
20260507054844 46 194 14.0 25.0 0.00 0.00 0.00 83 850.0
20260507054541 46 194 14.0 24.0 0.00 0.00 0.00 82 850.0
20260507054442 46 195 13.0 21.0 0.00 0.00 0.00 83 850.1
20260507054243 46 191 13.0 19.0 0.00 0.00 0.00 83 850.1
20260507054038 45 191 12.0 17.0 0.00 0.00 0.00 83 850.1
20260507053839 45 193 11.0 16.0 0.00 0.00 0.00 83 850.1
20260507053639 46 193 11.0 16.0 0.00 0.00 0.00 83 850.1
20260507053537 46 188 13.0 16.0 0.00 0.00 0.00 83 850.1
20260507053439 46 188 14.0 21.0 0.00 0.00 0.00 83 850.1
20260507053238 46 190 15.0 22.0 0.00 0.00 0.00 83 850.0
20260507053035 46 191 14.0 22.0 0.00 0.00 0.00 83 850.0
20260507052835 46 180 12.0 17.0 0.00 0.00 0.00 83 850.0
20260507052635 46 184 10.0 21.0 0.00 0.00 0.00 83 849.9
20260507052535 46 186 12.0 21.0 0.00 0.00 0.00 83 849.9
20260507052235 46 182 12.0 19.0 0.00 0.00 0.00 83 849.9
20260507052032 46 181 12.0 19.0 0.00 0.00 0.00 83 849.9
20260507051833 46 183 12.0 22.0 0.00 0.00 0.00 83 850.0
20260507051633 46 187 13.0 23.0 0.00 0.00 0.00 83 850.0
20260507051532 46 186 14.0 23.0 0.00 0.00 0.00 84 850.0
20260507051430 45 188 14.0 23.0 0.00 0.00 0.00 84 850.0
20260507051230 45 179 12.0 20.0 0.00 0.00 0.00 84 850.0
20260507051025 45 184 10.0 18.0 0.00 0.00 0.00 84 850.1
20260507050826 45 187 11.0 17.0 0.00 0.00 0.00 84 850.1
20260507050627 45 192 11.0 18.0 0.00 0.00 0.00 84 850.1
20260507050525 45 194 10.0 18.0 0.00 0.00 0.00 84 850.1
20260507050427 45 191 11.0 18.0 0.00 0.00 0.00 84 850.1
20260507050226 45 185 10.0 15.0 0.00 0.00 0.00 84 850.1
20260507050023 45 185 10.0 17.0 0.00 0.00 0.00 84 850.1
20260507045824 45 191 12.0 18.0 0.00 0.00 0.00 84 850.0
20260507045624 45 182 12.0 18.0 0.00 0.00 0.00 84 850.0
20260507045522 45 176 11.0 16.0 0.00 0.00 0.00 84 850.0
20260507045420 45 180 11.0 18.0 0.00 0.00 0.00 83 850.0
20260507045219 45 185 12.0 20.0 0.00 0.00 0.00 84 849.9
20260507045016 45 183 9.0 15.0 0.00 0.00 0.00 84 849.7
20260507044617 45 174 9.0 13.0 0.00 0.00 0.00 84 849.6
20260507044516 45 180 10.0 13.0 0.00 0.00 0.00 84 849.6
20260507044416 45 182 11.0 20.0 0.00 0.00 0.00 84 849.6
20260507044216 44 180 12.0 20.0 0.00 0.00 0.00 84 849.5
20260507044013 44 181 13.0 24.0 0.00 0.00 0.00 84 849.5
20260507043813 44 176 12.0 25.0 0.00 0.00 0.00 84 849.5
20260507043513 44 180 12.0 19.0 0.00 0.00 0.00 84 849.5
20260507043413 44 174 13.0 19.0 0.00 0.00 0.00 84 849.5
20260507043214 44 184 15.0 22.0 0.00 0.00 0.00 84 849.5
20260507043010 44 185 14.0 22.0 0.00 0.00 0.00 84 849.5
20260507042812 44 185 13.0 18.0 0.00 0.00 0.00 84 849.5
20260507042611 44 187 13.0 20.0 0.00 0.00 0.00 84 849.5
20260507042510 44 186 13.0 20.0 0.00 0.00 0.00 84 849.5
20260507042412 44 189 13.0 24.0 0.00 0.00 0.00 84 849.5
20260507042213 44 193 14.0 24.0 0.00 0.00 0.00 84 849.5
20260507042007 44 191 13.0 17.0 0.00 0.00 0.00 84 849.6
20260507041808 44 193 12.0 17.0 0.00 0.00 0.00 84 849.6
20260507041608 44 191 15.0 23.0 0.00 0.00 0.00 84 849.5
20260507041507 44 190 16.0 23.0 0.00 0.00 0.00 84 849.5
20260507041407 44 189 16.0 23.0 0.00 0.00 0.00 84 849.5
20260507041208 44 186 15.0 25.0 0.00 0.00 0.00 84 849.5
20260507041004 44 184 16.0 25.0 0.00 0.00 0.00 84 849.5
20260507040805 44 184 16.0 29.0 0.00 0.00 0.00 84 849.4
20260507040606 44 187 15.0 29.0 0.00 0.00 0.00 84 849.3
20260507040504 44 188 15.0 32.0 0.00 0.00 0.00 84 849.3
20260507040405 44 189 15.0 32.0 0.00 0.00 0.00 84 849.3
20260507040205 44 189 15.0 25.0 0.00 0.00 0.00 84 849.4
20260507040001 44 189 17.0 27.0 0.00 0.00 0.00 84 849.3
20260507035802 44 192 17.0 27.0 0.00 0.00 0.00 84 849.3
20260507035602 44 194 15.0 23.0 0.00 0.00 0.00 84 849.3
20260507035502 0 193 14.0 20.0 0.00 0.00 0.00
20260507035402 44 190 16.0 27.0 0.00 0.00 0.00 84 849.3
20260507035202 44 191 17.0 27.0 0.00 0.00 0.00 84 849.3
20260507034958 44 189 18.0 26.0 0.00 0.00 0.00 84 849.3
20260507034759 44 198 17.0 26.0 0.00 0.00 0.00 84 849.3
20260507034559 44 194 16.0 25.0 0.00 0.00 0.00 83 849.3
20260507034458 44 190 16.0 25.0 0.00 0.00 0.00 84 849.3
20260507034158 44 188 17.0 27.0 0.00 0.00 0.00 83 849.3
20260507033955 44 190 14.0 22.0 0.00 0.00 0.00 83 849.3
20260507033757 44 188 15.0 27.0 0.00 0.00 0.00 83 849.3
20260507033556 44 189 16.0 27.0 0.00 0.00 0.00 83 849.3
20260507033442 44 188 15.0 24.0 0.00 0.00 0.00 83 849.3
20260507033342 44 191 16.0 25.0 0.00 0.00 0.00 83 849.3
20260507033142 44 189 17.0 25.0 0.00 0.00 0.00 83 849.3
20260507032939 44 191 16.0 22.0 0.00 0.00 0.00 83 849.4
20260507032740 44 183 14.0 22.0 0.00 0.00 0.00 83 849.4
20260507032540 44 182 12.0 22.0 0.00 0.00 0.00 83 849.4
20260507032438 44 181 12.0 22.0 0.00 0.00 0.00 83 849.4
20260507032340 44 184 13.0 22.0 0.00 0.00 0.00 83 849.4
20260507032141 44 189 14.0 22.0 0.00 0.00 0.00 83 849.5
20260507031935 44 183 15.0 25.0 0.00 0.00 0.00 83 849.5
20260507031739 44 181 14.0 25.0 0.00 0.00 0.00 83 849.5
20260507031539 44 186 14.0 20.0 0.00 0.00 0.00 83 849.5
20260507031435 44 187 15.0 24.0 0.00 0.00 0.00 83 849.5
20260507031333 44 189 15.0 24.0 0.00 0.00 0.00 83 849.5
20260507031133 44 190 12.0 19.0 0.00 0.00 0.00 83 849.5
20260507030929 44 191 11.0 15.0 0.00 0.00 0.00 83 849.5
20260507030731 44 188 11.0 19.0 0.00 0.00 0.00 82 849.4
20260507030531 44 183 11.0 19.0 0.00 0.00 0.00 82 849.4
20260507030429 44 180 10.0 19.0 0.00 0.00 0.00 82 849.4
20260507030330 44 179 9.0 15.0 0.00 0.00 0.00 82 849.4
20260507030130 44 172 11.0 17.0 0.00 0.00 0.00 82 849.3
20260507025926 44 180 10.0 20.0 0.00 0.00 0.00 82 849.4
20260507025728 44 177 12.0 20.0 0.00 0.00 0.00 82 849.5
20260507025527 44 181 10.0 17.0 0.00 0.00 0.00 82 849.5
20260507025426 44 181 10.0 19.0 0.00 0.00 0.00 82 849.6
20260507025327 44 185 10.0 21.0 0.00 0.00 0.00 82 849.6
20260507025126 44 185 11.0 21.0 0.00 0.00 0.00 82 849.6
20260507024923 44 188 10.0 19.0 0.00 0.00 0.00 82 849.6
20260507024724 44 187 11.0 20.0 0.00 0.00 0.00 82 849.7
20260507024524 44 176 10.0 15.0 0.00 0.00 0.00 82 849.7
20260507024423 44 180 9.0 15.0 0.00 0.00 0.00 82 849.7
20260507024324 44 179 10.0 16.0 0.00 0.00 0.00 82 849.8
20260507024124 44 180 12.0 17.0 0.00 0.00 0.00 82 849.7
20260507023920 44 188 12.0 17.0 0.00 0.00 0.00 81 849.8
20260507023722 44 186 10.0 17.0 0.00 0.00 0.00 81 849.8
20260507023521 44 194 10.0 19.0 0.00 0.00 0.00 81 849.8
20260507023420 44 196 10.0 19.0 0.00 0.00 0.00 81 849.7
20260507023322 44 196 11.0 19.0 0.00 0.00 0.00 81 849.7
20260507023121 44 199 9.0 16.0 0.00 0.00 0.00 81 849.7
20260507022917 44 201 6.0 13.0 0.00 0.00 0.00 81 849.8
20260507022719 44 196 8.0 12.0 0.00 0.00 0.00 81 849.8
20260507022518 44 188 8.0 12.0 0.00 0.00 0.00 81 849.8
20260507022417 44 198 7.0 12.0 0.00 0.00 0.00 81 849.8
20260507022318 44 197 8.0 16.0 0.00 0.00 0.00 81 849.7
20260507022118 44 192 10.0 16.0 0.00 0.00 0.00 81 849.7
20260507021914 44 180 8.0 15.0 0.00 0.00 0.00 81 849.6
20260507021715 44 174 9.0 14.0 0.00 0.00 0.00 81 849.5
20260507021515 44 184 10.0 15.0 0.00 0.00 0.00 81 849.5
20260507021414 44 182 11.0 16.0 0.00 0.00 0.00 81 849.5
20260507021315 44 181 12.0 18.0 0.00 0.00 0.00 81 849.6
20260507021115 44 183 10.0 18.0 0.00 0.00 0.00 81 849.7
20260507020911 44 185 9.0 15.0 0.00 0.00 0.00 81 849.7
20260507020712 44 185 9.0 14.0 0.00 0.00 0.00 81 849.8
20260507020512 44 186 9.0 14.0 0.00 0.00 0.00 81 849.7
20260507020411 44 186 10.0 17.0 0.00 0.00 0.00 81 849.7
20260507020312 44 189 10.0 17.0 0.00 0.00 0.00 81 849.7
20260507020112 44 190 7.0 13.0 0.00 0.00 0.00 81 849.7
20260507015908 44 180 8.0 14.0 0.00 0.00 0.00 81 849.7
20260507015709 44 178 8.0 18.0 0.00 0.00 0.00 81 849.7
20260507015509 44 189 10.0 19.0 0.00 0.00 0.00 81 849.7
20260507015408 44 193 8.0 19.0 0.00 0.00 0.00 81 849.8
20260507015309 44 191 8.0 13.0 0.00 0.00 0.00 81 849.8
20260507015109 43 197 7.0 12.0 0.00 0.00 0.00 81 849.9
20260507014905 43 202 6.0 12.0 0.00 0.00 0.00 81 849.9
20260507014705 43 216 5.0 10.0 0.00 0.00 0.00 81 849.9
20260507014505 43 216 5.0 10.0 0.00 0.00 0.00 81 849.8
20260507014405 43 210 5.0 10.0 0.00 0.00 0.00 81 849.8
20260507014305 43 201 5.0 10.0 0.00 0.00 0.00 81 849.7
20260507014105 44 188 7.0 13.0 0.00 0.00 0.00 81 849.6
20260507013902 44 183 8.0 14.0 0.00 0.00 0.00 81 849.6
20260507013704 44 196 8.0 14.0 0.00 0.00 0.00 81 849.6
20260507013503 44 195 8.0 18.0 0.00 0.00 0.00 81 849.5
20260507013402 44 191 8.0 18.0 0.00 0.00 0.00 81 849.5
20260507013304 44 188 8.0 18.0 0.00 0.00 0.00 81 849.5
20260507013103 44 180 7.0 12.0 0.00 0.00 0.00 81 849.4
20260507012859 44 183 10.0 18.0 0.00 0.00 0.00 81 849.3
20260507012700 44 191 10.0 18.0 0.00 0.00 0.00 81 849.3
20260507012500 44 185 9.0 14.0 0.00 0.00 0.00 81 849.3
20260507012359 44 188 10.0 14.0 0.00 0.00 0.00 81 849.2
20260507012300 44 185 10.0 14.0 0.00 0.00 0.00 81 849.2
20260507012110 44 188 9.0 15.0 0.00 0.00 0.00 81 849.2
20260507011856 44 190 12.0 21.0 0.00 0.00 0.00 81 849.2
20260507011658 44 193 10.0 17.0 0.00 0.00 0.00 80 849.3
20260507011457 44 200 9.0 18.0 0.00 0.00 0.00 80 849.3
20260507011356 44 204 9.0 18.0 0.00 0.00 0.00 80 849.2
20260507011258 44 197 9.0 18.0 0.00 0.00 0.00 80 849.2
20260507011058 44 186 10.0 23.0 0.00 0.00 0.00 80 849.2
20260507010853 44 190 13.0 27.0 0.00 0.00 0.00 80 849.1
20260507010454 44 187 10.0 26.0 0.00 0.00 0.00 80 849.0
20260507010353 44 188 12.0 26.0 0.00 0.00 0.00 80 849.0
20260507010254 44 185 12.0 20.0 0.00 0.00 0.00 80 849.0
20260507010054 44 182 11.0 17.0 0.00 0.00 0.00 80 849.0
20260507005838 45 182 12.0 18.0 0.00 0.00 0.00 80 849.0
20260507005638 45 181 13.0 23.0 0.00 0.00 0.00 80 848.9
20260507005438 45 183 14.0 23.0 0.00 0.00 0.00 80 848.9
20260507005338 45 179 13.0 20.0 0.00 0.00 0.00 80 849.0
20260507005039 45 187 10.0 19.0 0.00 0.00 0.00 80 849.0
20260507004835 45 184 11.0 21.0 0.00 0.00 0.00 80 848.9
20260507004635 45 187 10.0 14.0 0.00 0.00 0.00 80 848.9
20260507004436 45 181 10.0 17.0 0.00 0.00 0.00 80 848.9
20260507004335 45 185 11.0 18.0 0.00 0.00 0.00 80 848.9
20260507004235 45 185 12.0 20.0 0.00 0.00 0.00 80 848.9
20260507004035 45 184 11.0 20.0 0.00 0.00 0.00 80 848.9
20260507003831 45 173 9.0 18.0 0.00 0.00 0.00 80 848.9
20260507003632 45 179 11.0 18.0 0.00 0.00 0.00 80 849.0
20260507003432 45 176 12.0 21.0 0.00 0.00 0.00 80 848.9
20260507003331 45 178 11.0 21.0 0.00 0.00 0.00 80 849.0
20260507003231 45 182 11.0 21.0 0.00 0.00 0.00 80 849.0
20260507003031 45 183 10.0 16.0 0.00 0.00 0.00 80 849.0
20260507002828 45 176 12.0 21.0 0.00 0.00 0.00 80 849.1
20260507002630 45 182 11.0 22.0 0.00 0.00 0.00 80 849.0
20260507002430 45 176 10.0 22.0 0.00 0.00 0.00 80 849.0